STARLINK-33914 (63774 NORAD) Tracking and Keplerian Element Data

This shows tracking and keplerian element data for the satellite.

Feedback or suggestion? Click here.




ElementValue
Catalog63774
NameSTARLINK-33914
Epoch Orbit3678
Epoch Day353.79442622
Epoch Year2025
RAAN132.5063
Inclination43.0038
Eccentricity0.0002704
Argument of Perigee286.6437
Mean Anonmoly73.4118
Mean Motion15.27599089
Decay Rate0.00015727
L11 63774U 25089Y 25353.79442622 .00015727 00000+0 57944-3 0 9998
L22 63774 43.0038 132.5063 0002704 286.6437 73.4118 15.27599089 36789



Live tracking and technical data element details for STARLINK-33914 (NORAD 63774). STARLINK-33914 can be tracked NOW for your location showing map with azimuth and elevation plus other details from your city location.







IsCatalogInMostPopularTable: catalog: 63774, numindb: 2
Update: records affected: 1



GetName: 63774 STARLINK-33914

Hit Count: updated at: Tue, 10 Feb 2026 03:56:57 GMT